Lapse_Rate
6.5 6.7 6.7 7.0 6.7 7.6 8.7 9.6 8.7 8.3 7.9 7.8 7.8 8.1 8.6 8.1 8.4 8.1 8.0 8.0 8.0 7.6 7.2 6.9 6.6 6.6 6.4 6.4 6.6 6.8 6.9 7.0 6.9 7.0 7.1 7.1 7.1 7.0 7.0 7.0 6.9 6.9 6.9 6.7 6.7 6.6 6.6 6.6 6.7
6.8 6.7 6.6 6.6 7.3 8.9 9.6 9.7 8.4 8.6 8.0 7.4 7.4 7.7 7.6 7.4 7.9 8.0 8.1 8.0 7.9 7.6 7.3 6.8 6.5 6.5 6.4 6.5 6.9 6.9 6.9 7.1 7.1 7.2 7.3 7.3 7.2 7.1 7.0 7.0 7.0 6.9 6.8 6.7 6.7 6.7 6.7 6.6 6.7
6.8 6.9 6.4 7.0 7.8 8.7 9.6 9.1 8.6 8.0 7.1 7.2 7.1 7.1 6.9 7.4 7.7 7.9 7.9 7.9 7.6 7.4 7.0 6.6 6.5 6.5 6.5 6.5 6.7 6.8 7.0 7.1 7.2 7.2 7.2 7.2 7.3 7.2 7.2 7.2 7.1 7.0 7.0 7.0 7.0 7.0 6.8 6.7 6.8
6.8 6.3 6.4 7.1 8.2 9.2 8.6 8.5 8.1 7.6 7.0 7.0 7.0 6.9 7.6 7.9 7.9 7.8 7.8 7.6 7.4 7.2 6.9 6.5 6.6 6.6 6.6 6.6 6.7 6.7 6.9 7.0 7.1 7.1 7.2 7.3 7.3 7.3 7.2 7.2 7.1 7.2 7.1 7.1 7.1 7.2 7.1 7.0 6.9
6.7 6.5 7.2 7.8 8.3 8.8 8.2 7.9 7.8 7.5 7.2 7.0 7.1 6.6 7.7 7.7 7.7 7.5 7.7 7.7 7.5 7.1 6.7 6.6 6.6 6.6 6.6 6.7 6.8 6.9 7.0 7.1 7.1 7.0 7.0 7.0 7.0 7.0 7.1 7.2 7.2 7.2 7.3 7.3 7.3 7.2 7.1 7.0 6.8
6.5 6.9 7.4 8.3 9.3 9.6 7.9 7.7 7.5 7.5 7.4 7.2 7.0 7.0 7.5 7.5 7.5 7.7 7.7 7.8 7.6 7.1 6.6 6.7 6.7 6.6 6.6 6.8 6.8 7.0 7.0 6.9 6.9 6.8 6.9 6.9 7.0 7.0 7.0 7.1 7.2 7.1 7.1 7.1 7.0 7.0 6.9 6.9 6.8
6.4 7.3 7.7 7.9 8.3 8.5 8.2 7.5 7.5 7.5 7.5 7.4 7.0 7.1 7.6 7.5 7.6 7.7 7.7 7.6 7.7 7.2 6.9 6.8 6.9 6.6 6.7 6.8 6.8 6.8 6.7 6.8 6.8 6.7 6.8 6.8 6.8 6.8 6.8 6.8 6.8 6.8 6.7 6.7 6.7 6.7 6.6 6.6 6.5
6.5 7.0 7.4 7.9 8.3 8.3 8.3 7.1 7.5 7.4 7.7 7.2 7.0 7.0 7.2 7.5 7.6 7.7 7.7 7.6 7.7 7.4 7.2 7.0 7.0 6.9 6.7 6.7 6.8 6.8 6.7 6.7 6.7 6.7 6.6 6.7 6.7 6.7 6.6 6.6 6.6 6.6 6.6 6.6 6.6 6.6 6.6 6.6 6.6
6.4 6.8 7.6 8.3 8.8 8.1 7.6 6.9 7.5 7.2 7.4 7.0 6.8 6.7 7.0 7.7 7.5 7.6 7.6 7.6 7.6 7.5 7.2 7.0 6.9 6.8 6.7 6.7 6.8 6.8 6.8 6.8 6.8 6.7 6.6 6.6 6.6 6.6 6.7 6.6 6.6 6.6 6.6 6.5 6.5 6.4 6.4 6.3 6.5
6.5 7.2 7.8 8.3 7.6 7.6 7.5 6.9 7.5 6.5 6.8 6.6 7.0 7.3 7.4 7.5 7.6 7.6 7.6 7.6 7.5 7.4 7.2 7.2 7.2 7.0 6.9 6.9 6.9 6.9 6.8 6.8 6.7 6.7 6.7 6.6 6.6 6.6 6.5 6.5 6.5 6.5 6.5 6.4 6.4 6.3 6.3 6.3 6.3
6.9 6.9 7.4 7.6 7.2 7.0 7.1 7.4 7.2 7.2 7.0 7.1 6.7 7.4 7.4 7.4 7.5 7.5 7.5 7.5 7.5 7.3 7.3 7.4 7.2 7.1 7.1 7.0 6.9 6.9 7.0 6.9 6.8 6.7 6.6 6.6 6.7 6.6 6.6 6.6 6.6 6.6 6.6 6.5 6.5 6.4 6.3 6.2 6.2
6.4 6.6 6.8 6.9 7.0 6.9 6.9 7.2 7.5 7.3 7.3 7.5 7.2 6.6 7.5 7.3 7.3 7.4 7.6 7.5 7.5 7.4 7.4 7.3 7.3 7.1 7.1 7.0 7.0 7.1 7.0 6.9 6.8 6.8 6.7 6.7 6.6 6.6 6.6 6.5 6.5 6.5 6.5 6.5 6.5 6.5 6.4 6.3 6.3
6.4 6.5 6.7 6.9 6.9 6.8 6.7 6.9 7.3 7.4 7.1 7.1 7.2 6.3 7.4 7.4 7.4 7.3 7.4 7.3 7.5 7.4 7.4 7.4 7.2 7.1 7.2 7.0 7.1 7.0 6.9 6.9 6.8 6.8 6.7 6.6 6.6 6.6 6.5 6.4 6.4 6.4 6.4 6.4 6.3 6.3 6.2 6.2 6.2
6.4 6.5 6.4 6.5 6.7 6.9 6.6 6.7 6.9 7.0 7.3 7.0 7.0 6.4 7.2 7.4 7.5 7.4 7.3 7.3 7.5 7.5 7.5 7.4 7.3 7.1 7.1 7.0 6.9 6.9 6.9 6.9 6.8 6.8 6.7 6.6 6.5 6.4 6.3 6.4 6.4 6.3 6.2 6.2 6.2 6.2 6.2 6.2 6.2
6.2 6.2 6.3 6.5 6.8 6.7 6.9 6.5 6.7 7.2 7.3 6.7 7.0 7.2 7.3 7.4 7.5 7.4 7.4 7.3 7.4 7.5 7.5 7.4 7.3 7.2 7.0 7.0 6.9 6.9 6.8 6.7 6.8 6.7 6.5 6.5 6.3 6.3 6.3 6.4 6.4 6.3 6.2 6.1 6.1 6.0 6.0 6.0 6.0
6.0 6.2 6.5 7.2 7.5 7.5 7.0 6.6 7.3 7.4 7.3 6.8 6.7 7.2 7.4 7.5 7.5 7.3 7.4 7.4 7.4 7.4 7.6 7.4 7.2 7.1 7.0 6.9 6.8 6.8 6.8 6.9 6.8 6.7 6.5 6.3 6.2 6.3 6.3 6.3 6.3 6.2 6.0 5.9 5.8 5.8 5.7 5.7 5.7
6.2 6.4 7.3 8.0 7.7 7.2 7.4 6.9 7.4 7.9 7.9 7.1 7.0 6.7 7.5 7.4 7.3 7.4 7.5 7.3 7.3 7.4 7.3 7.2 7.1 7.0 6.9 6.8 6.7 6.6 6.7 6.8 6.7 6.6 6.4 6.3 6.3 6.3 6.2 6.3 6.1 5.9 5.8 5.7 5.6 5.4 5.3 5.2 5.2
7.5 8.0 8.4 8.0 8.1 8.1 7.5 7.2 7.3 7.7 7.8 7.2 7.4 6.9 7.1 7.4 7.3 7.5 7.5 7.3 7.1 7.1 7.1 7.1 7.0 7.0 7.0 6.9 6.7 6.6 6.6 6.7 6.6 6.5 6.4 6.4 6.3 6.2 6.2 6.2 6.0 5.7 5.6 5.5 5.3 5.1 5.0 5.1 5.2
7.1 7.6 8.0 8.7 8.7 7.8 7.7 7.3 7.3 7.6 7.7 7.0 7.2 7.2 6.8 7.1 7.5 7.5 7.4 7.2 7.0 7.0 7.0 7.1 7.1 7.1 7.0 6.9 6.7 6.7 6.8 6.7 6.6 6.5 6.3 6.3 6.2 6.2 6.2 6.1 5.9 5.6 5.4 5.4 5.3 5.3 5.3 5.3 5.3
7.2 7.2 7.5 7.9 8.1 8.0 7.8 7.2 7.3 7.3 7.5 7.3 7.2 7.5 7.2 6.5 6.5 7.5 7.5 7.2 6.9 7.0 7.0 7.1 7.1 7.0 6.9 6.9 6.8 6.7 6.8 6.7 6.6 6.4 6.3 6.2 6.2 6.3 6.2 6.0 5.8 5.6 5.7 5.5 5.4 5.4 5.5 5.6 5.6
7.2 7.3 7.6 7.7 8.2 7.7 8.1 6.9 7.3 7.2 7.4 7.6 6.9 7.2 7.4 6.7 6.1 7.4 7.6 7.4 7.1 7.0 7.0 7.0 7.0 7.0 6.9 7.0 6.8 6.7 6.7 6.6 6.4 6.4 6.2 6.2 6.3 6.3 6.1 5.9 5.7 5.9 5.8 5.6 5.5 5.6 5.8 6.0 6.2
7.3 7.8 7.7 7.6 7.8 7.4 8.4 7.7 7.8 8.7 7.8 7.3 7.3 6.9 7.1 6.9 6.2 6.5 7.5 7.4 7.3 7.2 7.1 7.0 7.1 6.9 7.0 6.8 6.7 6.6 6.6 6.4 6.3 6.2 6.3 6.3 6.3 6.2 6.0 5.9 6.0 6.1 5.9 5.8 5.8 6.0 6.1 6.4 6.5
7.0 7.9 7.0 6.5 6.7 6.7 6.4 8.2 5.7 8.0 7.9 8.0 8.0 7.2 7.3 7.1 6.5 6.9 7.7 7.7 7.4 7.2 7.2 7.1 7.1 7.0 6.9 6.7 6.5 6.4 6.4 6.4 6.2 6.3 6.2 6.2 6.3 6.1 6.0 6.1 6.1 6.2 6.1 5.9 6.1 6.2 6.4 6.6 6.6
6.9 7.2 6.5 6.0 6.5 6.4 5.7 7.8 6.4 7.6 8.5 8.5 7.8 7.4 7.4 7.1 7.0 6.9 7.6 7.6 7.4 7.1 7.0 7.0 7.1 6.9 6.8 6.6 6.4 6.4 6.4 6.2 6.1 6.1 6.2 6.2 6.2 6.2 6.3 6.2 6.3 6.3 6.0 6.1 6.3 6.5 6.6 6.7 6.8
6.8 6.7 6.2 6.2 6.4 6.6 7.1 8.2 6.9 8.3 8.3 8.2 8.2 7.7 7.9 7.4 6.7 6.7 7.1 7.7 7.5 7.3 7.6 7.5 7.1 7.0 6.8 6.5 6.4 6.5 6.2 6.2 5.9 6.1 6.2 6.3 6.4 6.4 6.2 6.3 6.3 6.1 6.1 6.3 6.5 6.7 6.8 6.9 7.2
6.7 7.2 6.3 7.1 7.9 8.2 7.8 8.4 7.1 8.8 8.2 7.3 7.5 7.9 7.6 7.2 7.2 7.2 7.3 7.6 7.7 7.6 7.6 7.6 7.4 7.1 6.8 6.5 6.6 6.2 6.0 5.7 5.8 6.1 6.2 6.4 6.4 6.2 6.3 6.2 6.1 6.2 6.3 6.5 6.8 6.9 7.0 7.2 7.5
6.5 6.6 6.6 7.1 7.4 7.3 6.7 7.8 9.0 8.4 7.9 7.5 7.1 7.3 7.4 7.5 7.4 7.3 7.2 7.3 7.5 7.5 7.8 7.8 7.3 7.0 6.8 6.5 6.1 5.7 5.5 5.5 5.8 6.2 6.5 6.5 6.3 6.3 6.3 6.1 6.2 6.4 6.6 6.8 6.9 7.0 7.1 7.4 7.6
7.4 7.5 6.5 6.1 6.5 7.1 7.6 8.1 8.9 8.2 6.9 6.9 6.8 6.9 7.1 7.2 7.2 7.4 7.2 7.1 7.3 7.3 6.8 6.5 6.3 6.6 6.3 5.9 5.4 5.4 5.3 5.2 5.6 6.4 6.5 6.2 6.2 6.3 6.2 6.2 6.5 6.6 6.7 6.9 7.0 7.0 7.2 7.5 7.6
7.4 7.1 6.5 6.5 6.4 7.2 7.7 8.5 6.8 7.5 7.1 6.9 7.0 6.5 7.2 7.4 7.6 7.5 7.5 7.4 7.3 7.4 6.9 6.0 5.9 6.0 5.9 5.4 5.1 4.9 4.7 5.1 6.2 6.3 6.4 6.3 6.1 6.2 6.4 6.5 6.7 6.7 6.8 6.9 7.0 7.0 7.3 7.5 7.6
7.2 6.5 6.3 5.1 6.0 6.3 7.4 7.4 6.8 6.5 6.5 6.6 6.7 6.3 7.1 7.2 7.3 7.3 7.2 7.3 7.3 7.4 7.2 6.1 5.9 5.8 5.7 4.9 4.7 4.7 4.9 5.9 6.3 6.3 6.3 6.3 6.2 6.5 6.7 6.7 6.7 6.7 6.9 7.0 7.1 7.1 7.3 7.4 7.5
Wind_Speed
15 14 8 7 7 8 15 13 6 3 5 3 5 1 5 19 1 5 2 12 14 12 14 13 13 13 12 12 14 14 14 14 14 16 16 15 14 14 14 15 13 8 7 7 7 7 8 8 7
14 8 7 8 9 13 10 6 5 8 3 4 10 2 3 7 12 9 6 5 16 12 12 15 14 15 15 15 16 16 18 18 18 19 18 18 18 17 17 16 17 15 14 12 10 9 10 11 10
13 9 9 13 14 14 12 9 4 8 5 10 6 4 5 6 12 5 6 13 17 14 15 16 17 16 17 18 17 17 18 18 17 16 17 17 17 17 17 16 16 16 15 15 13 13 14 15 14
5 7 7 11 19 15 7 6 7 7 9 11 9 8 7 10 12 11 9 14 15 15 17 17 17 16 18 18 17 18 18 17 17 15 16 17 17 17 17 16 15 15 14 14 14 15 15 15 15
8 8 12 19 19 17 1 6 6 10 11 15 11 11 7 4 13 19 15 12 15 14 17 18 17 18 19 18 19 18 18 18 17 16 17 17 17 17 17 16 15 14 14 14 14 14 14 14 13
9 8 13 16 18 7 3 3 9 11 12 13 12 11 6 10 15 13 13 12 14 14 17 18 18 19 19 19 19 19 19 17 17 16 16 17 16 15 15 15 14 14 14 14 14 14 14 13 12
13 12 16 20 19 16 8 7 12 13 14 13 7 11 7 13 14 15 12 11 13 16 15 17 18 20 19 19 19 20 19 16 16 15 15 14 15 16 14 16 15 16 14 14 15 15 16 15 14
9 13 20 19 15 16 3 4 14 14 13 2 10 11 8 19 16 14 13 12 11 10 11 13 17 17 17 16 17 18 17 16 16 13 8 7 12 11 12 11 13 13 13 13 15 15 16 16 14
11 12 16 20 18 9 5 8 14 5 7 8 6 8 10 26 19 15 13 11 11 9 10 11 11 14 15 16 16 17 15 12 11 11 6 5 8 8 7 10 10 11 14 12 15 15 17 17 17
10 13 20 15 15 12 10 10 12 9 15 12 8 9 16 21 19 17 15 13 12 13 12 10 11 12 13 12 12 12 11 11 9 8 7 7 7 7 6 3 2 3 11 6 12 9 15 12 15
15 18 18 19 9 14 16 15 14 16 19 20 19 14 16 18 17 17 16 16 16 15 12 12 11 13 12 11 11 9 8 8 9 9 8 7 6 7 7 7 8 9 10 11 13 13 12 15 14
12 18 18 17 16 13 17 19 19 19 16 12 11 23 20 20 20 19 18 17 17 16 14 13 12 10 10 10 8 9 9 8 7 9 8 6 5 6 7 7 9 9 11 11 12 12 14 15 15
17 19 20 19 17 17 17 20 20 18 17 12 9 20 21 20 20 19 19 20 17 16 15 15 13 11 10 8 8 9 9 8 9 8 10 8 7 6 7 7 8 10 12 12 12 13 14 14 15
21 22 17 17 18 18 20 20 20 22 19 9 12 16 19 22 22 20 21 18 18 16 16 14 14 11 13 8 9 8 9 10 9 10 10 9 8 8 8 8 9 10 12 12 12 11 9 10 12
18 22 21 22 23 24 20 22 25 19 21 15 16 17 19 21 22 24 22 19 19 16 17 15 13 12 11 11 10 8 8 9 9 10 10 10 10 10 9 7 6 11 12 12 12 13 13 10 10
25 25 22 19 23 18 21 23 20 21 21 19 18 17 19 22 23 23 19 18 19 18 17 16 13 14 12 10 8 8 8 9 9 8 9 10 10 10 8 6 6 12 11 11 9 9 10 10 10
19 24 25 23 17 14 19 24 21 24 23 20 19 18 18 20 23 21 20 20 19 18 18 17 15 14 12 10 9 9 9 8 8 8 8 8 7 8 8 7 8 12 9 8 8 9 9 11 11
20 24 24 20 15 19 21 23 19 22 16 19 19 19 20 21 24 21 21 19 19 18 17 16 14 14 12 9 8 6 6 7 7 7 7 5 7 8 8 6 8 10 6 7 8 11 10 9 10
25 26 25 17 15 11 17 19 20 19 20 19 20 21 21 22 22 21 20 19 19 18 18 17 16 15 11 8 8 7 6 5 5 7 5 5 7 7 7 7 7 9 6 8 9 9 11 9 12
26 24 24 22 20 19 22 26 23 22 23 23 24 24 23 23 23 23 22 21 20 20 18 18 16 15 11 8 7 6 6 5 5 6 6 6 5 6 5 7 6 7 6 7 9 10 9 8 10
26 23 21 23 20 24 21 30 26 24 26 26 23 25 26 25 25 25 24 23 21 20 19 17 17 15 11 10 7 7 6 6 5 4 4 5 4 4 6 6 6 6 5 6 8 9 11 9 9
25 22 24 24 19 19 19 23 26 17 24 29 27 26 25 26 26 26 25 24 22 20 19 18 17 16 12 12 10 11 7 7 5 4 4 4 3 5 5 5 6 6 6 6 7 8 8 9 9
28 20 14 21 18 18 32 13 33 21 26 25 25 25 25 24 25 28 27 26 23 20 19 18 17 16 14 12 10 8 6 7 6 5 6 3 4 4 5 5 4 5 5 5 7 7 8 7 7
22 17 12 15 16 12 35 18 29 23 25 23 25 24 24 22 22 25 25 24 22 21 19 18 19 17 15 12 11 9 9 8 7 6 5 4 3 3 4 4 4 4 5 5 5 6 8 7 8
16 14 4 7 7 13 22 17 26 15 9 10 14 19 19 20 22 24 26 24 21 23 21 18 20 18 16 14 12 11 10 8 8 7 4 4 3 2 3 3 3 4 5 7 7 5 7 7 7
21 19 9 16 16 20 23 26 27 19 7 4 11 10 16 19 18 21 24 23 23 22 23 21 22 19 17 15 13 11 11 7 6 4 5 3 3 3 2 2 3 4 6 7 6 5 6 7 6
29 15 25 23 27 12 16 25 19 13 5 8 10 4 11 18 21 21 21 21 21 21 20 20 22 20 18 15 13 12 9 9 7 7 5 4 4 4 2 3 3 5 7 7 6 5 7 7 7
20 21 10 6 6 8 19 22 15 6 9 9 7 8 7 13 18 20 21 20 18 19 17 17 19 20 18 16 13 11 10 9 9 7 6 6 5 4 3 3 4 5 6 7 7 6 7 8 7
14 14 6 5 6 9 15 8 4 6 5 3 4 5 6 11 15 17 19 21 21 20 19 17 17 18 17 13 13 12 10 10 8 7 7 7 6 5 4 4 4 5 6 7 6 7 7 8 8
9 9 3 4 4 10 14 15 5 6 5 5 3 3 3 8 13 15 12 19 19 19 17 17 16 16 15 14 13 11 11 10 9 8 7 7 6 5 4 4 5 6 6 6 6 6 6 7 8
Wind_Direction
275 229 248 256 244 230 264 252 271 218 229 85 264 152 82 32 67 112 335 103 105 101 118 110 102 102 100 92 92 95 95 92 94 84 79 75 70 65 60 57 52 40 20 355 339 332 326 328 329
298 280 251 273 252 258 259 166 186 255 117 159 83 79 159 81 70 107 106 141 110 114 130 117 98 95 94 89 82 81 85 81 79 78 77 76 73 69 61 54 51 48 43 33 18 358 347 351 336
265 265 271 246 239 259 296 55 289 89 102 161 146 268 79 80 117 98 137 133 118 104 104 104 96 97 98 91 88 83 79 79 80 82 80 76 72 66 62 55 48 42 39 32 24 21 17 12 9
273 226 240 256 269 268 277 356 286 139 195 176 150 124 83 39 128 131 153 133 119 110 108 95 92 94 95 93 91 86 84 84 82 85 86 81 78 73 68 64 58 52 45 36 30 25 17 10 10
234 260 262 261 258 273 326 288 259 200 190 205 197 139 105 70 119 135 148 144 119 113 114 101 98 101 102 101 100 99 95 91 89 87 83 78 73 69 64 58 53 47 42 35 26 21 14 8 3
265 239 272 265 274 248 256 279 258 227 211 218 214 140 119 151 141 143 149 136 127 126 125 117 106 101 101 104 101 99 95 93 92 87 84 80 75 71 63 57 47 38 33 24 16 11 3 356 350
258 274 264 279 285 289 242 223 247 228 222 223 211 200 107 177 154 146 142 133 131 134 130 129 120 106 101 100 103 99 97 97 92 85 81 80 74 63 53 46 36 29 23 18 9 2 355 345 337
288 275 269 267 268 279 350 177 252 236 229 253 195 215 178 175 159 142 138 136 134 134 136 135 142 131 122 112 105 103 101 94 86 78 71 102 101 101 64 31 31 24 16 12 5 358 349 337 317
259 269 263 267 275 275 80 258 242 250 242 179 196 10 69 147 152 150 146 141 138 144 147 146 147 134 128 125 126 114 106 103 121 104 53 63 51 30 44 60 26 21 10 4 0 355 340 322 310
237 260 267 297 323 298 270 244 228 212 235 200 183 100 121 149 160 158 158 154 159 160 154 156 150 146 152 137 134 118 101 85 72 64 57 54 41 33 5 53 76 32 10 337 348 335 315 335 336
239 255 274 292 262 279 280 266 241 212 237 222 203 172 161 165 166 167 168 167 174 165 161 159 152 158 163 143 149 135 128 117 88 61 40 51 41 17 10 4 5 358 13 1 350 344 346 338 327
257 263 269 273 281 279 266 265 261 247 241 269 226 169 170 177 175 175 176 178 171 166 161 159 161 162 153 151 150 143 131 120 102 74 40 43 38 20 8 12 1 360 0 353 349 344 340 333 326
268 263 262 268 264 259 264 265 266 257 240 234 245 146 175 182 182 181 184 187 163 170 162 162 159 159 153 152 136 125 132 110 104 83 58 34 32 17 9 6 2 2 355 357 347 346 339 335 332
282 292 278 277 267 260 257 260 254 247 249 215 224 192 188 190 185 180 197 171 173 166 164 161 159 156 161 144 146 132 121 122 96 80 63 48 30 20 3 4 2 4 352 349 341 344 334 333 328
279 272 271 257 253 253 249 255 248 238 251 213 217 205 194 194 185 190 189 179 174 169 164 165 156 157 154 146 144 123 121 109 96 89 65 53 37 19 358 3 4 3 343 341 343 339 339 333 331
272 269 269 264 251 245 229 253 247 223 235 223 214 207 197 193 192 197 180 179 176 169 164 162 159 156 158 140 140 125 121 104 93 85 72 49 36 19 356 4 6 352 343 347 349 347 341 339 331
252 259 264 269 232 236 241 245 249 256 209 220 216 210 201 198 192 188 184 182 173 167 166 165 159 156 146 141 130 117 115 95 91 82 68 56 43 20 359 15 4 344 349 355 352 348 347 339 334
249 246 244 250 261 252 241 244 244 269 203 219 226 212 203 204 196 186 185 181 177 165 168 162 160 151 152 141 142 123 111 100 92 82 73 48 46 23 7 10 2 349 352 356 353 347 347 335 340
265 272 279 282 286 263 269 271 266 253 224 229 230 220 207 209 193 189 180 179 175 168 170 166 158 159 158 160 155 146 134 120 105 97 87 68 45 27 17 3 1 358 355 355 356 349 347 346 351
250 255 264 274 270 270 269 264 262 256 250 219 235 232 207 206 196 187 184 180 184 173 174 169 163 165 173 163 161 152 134 120 116 119 98 65 52 34 16 7 359 1 344 357 356 2 351 352 3
250 252 258 264 279 284 282 271 260 252 250 247 222 239 225 204 202 189 187 187 187 176 176 172 167 169 175 153 138 133 118 126 153 146 134 81 69 46 30 13 357 352 347 2 357 10 360 355 3
256 243 254 259 267 266 263 282 272 265 237 229 231 219 232 209 200 191 189 191 189 180 177 173 166 170 169 170 161 161 166 168 126 129 108 127 85 60 29 8 2 359 351 6 4 8 4 5 355
250 266 265 277 269 280 265 262 278 265 255 254 227 216 219 225 199 195 190 191 188 179 177 175 166 167 164 179 165 166 167 109 142 141 147 125 116 76 35 11 2 2 4 12 16 7 10 3 355
272 270 257 289 268 255 256 252 271 266 263 254 234 205 217 214 197 202 188 187 187 181 175 172 169 166 165 163 159 165 150 147 146 157 160 148 126 113 51 7 8 5 5 14 15 8 8 10 7
239 233 234 230 227 246 259 243 241 295 300 278 281 191 202 208 195 200 184 188 185 180 174 170 173 161 162 161 158 152 150 150 147 160 149 151 146 132 60 9 12 12 17 15 6 8 3 6 11
226 226 222 242 247 259 260 241 255 267 3 300 252 228 202 203 189 194 184 185 183 176 175 173 171 162 162 158 151 152 146 154 126 146 133 135 122 89 72 31 33 30 26 21 10 17 6 354 8
233 232 240 255 270 283 263 271 279 199 186 201 201 214 215 209 195 198 187 181 181 174 177 175 168 160 158 156 151 150 155 134 136 126 144 129 111 124 99 67 53 42 34 26 7 25 18 357 357
261 229 219 215 235 236 257 256 267 156 215 206 216 212 229 207 192 193 192 176 175 170 169 176 169 159 156 152 154 154 141 134 129 151 132 128 120 117 93 79 63 53 44 34 27 25 23 6 2
222 244 240 178 210 240 263 272 329 47 16 299 245 188 214 186 190 185 188 177 178 173 173 174 168 158 155 152 152 147 130 128 144 143 138 136 137 118 113 92 78 68 53 44 41 36 26 14 12
246 224 232 268 190 234 255 262 92 75 67 12 40 72 208 195 182 184 167 169 178 176 163 174 162 155 154 146 152 134 131 148 150 149 151 135 136 127 114 93 79 70 63 53 47 40 31 26 22